Regional Weather Roundup
Issued by NWS

Home | Current Version | Previous Version | Graphics & Text | Print | Product List | Glossary On
Versions: 1 2 3 4 5 6 7 8 9 10 11 12 13 14 15 16 17 18 19 20 21 22 23 24 25 26 27 28 29 30 31 32 33 34 35 36 37 38 39 40 41 42 43 44 45 46 47 48 49 50
000
ASUS45 KCYS 011510
RWRWY

WYOMING REGIONAL WEATHER ROUNDUP
NATIONAL WEATHER SERVICE CHEYENNE WY
800 AM MST SUN FEB 01 2015

NOTE:  "FAIR" INDICATES FEW OR NO CLOUDS BELOW 12,000 FEET
WITH NO SIGNIFICANT WEATHER AND/OR OBSTRUCTIONS TO VISIBILITY.

WYZ001-011600-
YELLOWSTONE NATIONAL PARK

CITY           SKY/WX    TMP DP  RH WIND       PRES   REMARKS
LK YELLOWSTONE   N/A      5   2  87 NW5       30.15R WCI  -4
W YELLOWSTONE  NOT AVBL

$$
WYZ002>013-054>058-071-098>099-011600-
NORTHERN WYOMING

CITY           SKY/WX    TMP DP  RH WIND       PRES   REMARKS
JACKSON        PTCLDY     3   3 100 N8        30.19R WCI -10
CODY           CLOUDY    10   9  92 CALM      30.23S
GREYBULL       FAIR      10   5  80 NW3       30.31R
WORLAND        CLOUDY    14   8  77 CALM      30.30R
SHERIDAN       CLOUDY    10   3  73 W8        30.32S WCI  -2
BUFFALO        CLOUDY     8   3  80 N6        30.25R WCI  -2
GILLETTE       CLOUDY     5   1  83 N8        30.28R FOG     WCI  -8
HULETT           N/A    N/A N/A N/A MISG        N/A
NEWCASTLE      FAIR       5   0  78 MISG      30.25R

$$
WYZ014>020-022>026-101>103-011600-
CENTRAL WYOMING

CITY           SKY/WX    TMP DP  RH WIND       PRES   REMARKS
BIG PINEY      FAIR       6   1  80 W6        30.12R WCI  -4
PINEDALE       PTSUNNY    9   3  78 NW8       30.11S WCI  -4
DUBOIS         FAIR      19   7  58 W17       30.09S WCI   4
LANDER         CLOUDY    20  16  84 CALM      30.17R
RIVERTON       CLOUDY    20  16  84 E6        30.19R WCI  12
CASPER         LGT SNOW  12   7  80 N8        30.22R WCI   0
DOUGLAS        CLOUDY    14   5  67 NW25G33   30.21R WCI  -5

$$
WYZ021-027>030-104>119-011600-
SOUTHERN WYOMING

CITY           SKY/WX    TMP DP  RH WIND       PRES   REMARKS
EVANSTON       FAIR      22  17  81 SW8       30.16R WCI  12
FORT BRIDGER   FAIR      26  19  74 W14       30.17R WCI  14
ROCK SPRINGS   CLOUDY    20  11  68 W8        30.12R WCI  10
DIXON          FAIR      15  13  90 E5        30.16R WCI   8
RAWLINS        MOCLDY    19  13  77 N8        30.12R WCI   9
SARATOGA       CLOUDY    19  16  86 W3        30.11R
LARAMIE        FLURRIES  17  12  80 NW16      30.05R WCI   2
CHEYENNE       CLOUDY    13   9  84 N9G21     30.08R WCI   1
TORRINGTON     MOCLDY    16   6  65 N13G25    30.20R WCI   2
PINE BLUFFS    CLOUDY    18  12  79 N22G28    30.13R WCI   0

$$


USA.gov is the U.S. government's official web portal to all federal, state and local government web resources and services.